Flag for China Weather past 2 weeks in Xiamen, Fujian, China

Now
82 °F

Sunny.


Feels Like: 92 °F
Forecast: 80 / 93 °F
Wind: 6 mph from Northeast

Location: Xiamen Airport

Current Time: Aug 28, 2014 at 8:05:46 AM

Latest Report: Aug 28, 2014 at 7:00 AM


Visibility: 10 mi

Pressure: 29.92 "Hg

Humidity: 89%

Dew point: 79 °F

Location of XiamenLocation

Historic Weather in Xiamen — Graph

°F

Xiamen temperature yesterday

Maximum temperature yesterday: 93 °F (at 1:00 PM)
Minimum temperature yesterday: 82 °F (at 12:00 AM)
Average temperature yesterday: 87 °F

Past Weeks' High & Low Weather Summary

 TemperatureHumidityPressure
High95 °F (Aug 15, 1:00 PM)100% (Aug 13, 7:00 AM)29.95 "Hg (Aug 13, 7:00 AM)
Low77 °F (Aug 20, 12:00 AM)44% (Aug 24, 12:00 PM)29.56 "Hg (Aug 13, 7:00 AM)
Average85 °F81%29.79 "Hg
* Reported Aug 13 7:00 AM — Aug 28 7:00 AM, Xiamen, Weather by CustomWeather, © 2014

Note: Actual official high and low records may vary slightly from our data, if they occured in-between our weather recording intervals... More about our weather records

Advertising

Xiamen weather history for previous 24 hours

 ConditionsComfort  
Time TempWeatherWind HumidityBarometerVisibility
7:00 AM
Aug 28
82 °FSunny.6 mph89%29.92 "Hg10 mi
6:00 AM81 °FSunny.1 mph94%29.92 "Hg10 mi
5:00 AM81 °FClear.No wind89%29.92 "Hg5 mi
4:00 AM82 °FClear.1 mph89%29.92 "Hg5 mi
3:00 AM82 °FClear.3 mph89%29.92 "Hg10 mi
2:00 AM82 °FClear.No wind89%29.92 "Hg10 mi
1:00 AM84 °FClear.No wind84%29.95 "Hg10 mi
12:00 AM84 °FClear.1 mph84%29.95 "Hg10 mi
11:00 PM
Aug 27
84 °FClear.1 mph89%29.95 "Hg10 mi
10:00 PM82 °FPassing clouds.1 mph94%29.95 "HgN/A
9:00 PM84 °FPassing clouds.1 mph84%29.92 "HgN/A
8:00 PM86 °FPassing clouds.1 mph79%29.92 "HgN/A
7:00 PM86 °FPassing clouds.6 mph79%29.89 "HgN/A
6:00 PM88 °FPassing clouds.10 mph70%29.86 "HgN/A
5:00 PM90 °FPassing clouds.10 mph67%29.86 "HgN/A
4:00 PM91 °FPassing clouds.10 mph67%29.83 "HgN/A
3:00 PM93 °FScattered clouds.8 mph63%29.86 "HgN/A
2:00 PM93 °FScattered clouds.8 mph63%29.86 "HgN/A
1:00 PM93 °FScattered clouds.6 mph59%29.86 "HgN/A
12:00 PM91 °FScattered clouds.6 mph59%29.89 "HgN/A
11:00 AM91 °FScattered clouds.6 mph63%29.89 "HgN/A
10:00 AM90 °FPassing clouds.3 mph67%29.92 "HgN/A
9:00 AM88 °FPassing clouds.6 mph66%29.92 "HgN/A
8:00 AM86 °FPassing clouds.3 mph75%29.89 "HgN/A
Weather by CustomWeather, © 2014

See weather overviewHow to use our weather pages